RA44704 URRP-VTSP

Flight info

Callsign RA44704
Flight time N/A
Altitude 37000
Route BANPA A87 AZABI Q161 TIROM A845 ATASH A846 ABDAN A909 LEMOD N644 MESRA/F400 N644 REGET/F410 J145 DI M875 LEBIB A466 JHANG M875 KAKID M770 OBMOG L515 IKULA R325 MUDMA L515 UPSAB
Aircraft B752/M-SDFGHIRWY/S

Departure

Time 2026-04-20 10:23
Airport Platov International Airport (URRP)

Arrival

Time N/A
Airport Phuket International Airport (VTSP)
Time Latitude Longitude Altitude Speed Heading
2026-04-20 09:59 47.49164 39.93257 294 ft 0 kts 144°
2026-04-20 10:11 47.49171 39.93250 293 ft 2 kts 144°
2026-04-20 10:12 47.49183 39.93237 293 ft 2 kts 144°
2026-04-20 10:12 47.49195 39.93224 293 ft 2 kts 144°
2026-04-20 10:12 47.49207 39.93211 293 ft 2 kts 144°
2026-04-20 10:12 47.49220 39.93198 293 ft 2 kts 146°
2026-04-20 10:13 47.49233 39.93190 293 ft 2 kts 172°
2026-04-20 10:13 47.49249 39.93190 293 ft 2 kts 191°
2026-04-20 10:13 47.49262 39.93197 293 ft 2 kts 211°
2026-04-20 10:13 47.49274 39.93211 293 ft 1 kts 231°
2026-04-20 10:14 47.49277 39.93218 293 ft 1 kts 236°
2026-04-20 10:14 47.49278 39.93220 293 ft 0 kts 235°
2026-04-20 10:15 47.49278 39.93219 293 ft 0 kts 235°
2026-04-20 10:15 47.49260 39.93182 293 ft 5 kts 235°
2026-04-20 10:16 47.49246 39.93152 293 ft 3 kts 234°
2026-04-20 10:16 47.49210 39.93079 293 ft 12 kts 234°
2026-04-20 10:16 47.49155 39.92968 293 ft 12 kts 234°
2026-04-20 10:16 47.49107 39.92867 293 ft 10 kts 235°
2026-04-20 10:17 47.49107 39.92788 293 ft 9 kts 310°
2026-04-20 10:17 47.49178 39.92710 293 ft 16 kts 325°
2026-04-20 10:17 47.49234 39.92653 293 ft 7 kts 334°
2026-04-20 10:17 47.49284 39.92678 293 ft 9 kts 46°
2026-04-20 10:18 47.49330 39.92770 293 ft 12 kts 54°
2026-04-20 10:18 47.49389 39.92893 293 ft 16 kts 54°
2026-04-20 10:18 47.49466 39.93048 293 ft 20 kts 53°
2026-04-20 10:18 47.49536 39.93198 293 ft 18 kts 55°
2026-04-20 10:19 47.49621 39.93375 293 ft 22 kts 54°
2026-04-20 10:19 47.49719 39.93570 293 ft 23 kts 53°
2026-04-20 10:19 47.49812 39.93755 293 ft 21 kts 55°
2026-04-20 10:19 47.49895 39.93929 293 ft 19 kts 54°
2026-04-20 10:20 47.49971 39.94085 293 ft 17 kts 54°
2026-04-20 10:20 47.50039 39.94226 293 ft 15 kts 56°
2026-04-20 10:20 47.50098 39.94350 293 ft 13 kts 53°
2026-04-20 10:20 47.50150 39.94456 293 ft 11 kts 54°
2026-04-20 10:21 47.50197 39.94520 293 ft 7 kts 12°
2026-04-20 10:21 47.50249 39.94494 293 ft 9 kts 326°
2026-04-20 10:21 47.50311 39.94426 293 ft 11 kts 310°
2026-04-20 10:21 47.50295 39.94324 293 ft 10 kts 236°
2026-04-20 10:22 47.50253 39.94236 293 ft 17 kts 234°
2026-04-20 10:22 47.50023 39.93761 293 ft 97 kts 234°
2026-04-20 10:22 47.49481 39.92648 295 ft 168 kts 236°
2026-04-20 10:22 47.48728 39.91061 591 ft 208 kts 240°
2026-04-20 10:23 47.47938 39.89262 1664 ft 210 kts 238°
2026-04-20 10:23 47.47110 39.87627 2489 ft 206 kts 238°
2026-04-20 10:23 47.46189 39.85891 2865 ft 221 kts 225°
2026-04-20 10:23 47.44787 39.84784 3186 ft 246 kts 193°
2026-04-20 10:24 47.43037 39.84919 3505 ft 268 kts 162°
2026-04-20 10:24 47.41423 39.86422 3947 ft 282 kts 131°
2026-04-20 10:24 47.40494 39.88894 4636 ft 281 kts 102°
2026-04-20 10:24 47.40367 39.91758 5241 ft 282 kts 86°
2026-04-20 10:25 47.40314 39.94629 5910 ft 285 kts 94°
2026-04-20 10:25 47.40073 39.97543 6573 ft 287 kts 97°
2026-04-20 10:25 47.39753 40.00449 7164 ft 292 kts 99°
2026-04-20 10:25 47.39370 40.03425 7735 ft 297 kts 100°
2026-04-20 10:26 47.38959 40.06389 8302 ft 301 kts 101°
2026-04-20 10:26 47.38520 40.09433 8845 ft 305 kts 102°
2026-04-20 10:26 47.38071 40.12474 9403 ft 309 kts 103°
2026-04-20 10:26 47.37604 40.15595 9928 ft 313 kts 103°
2026-04-20 10:27 47.37126 40.18767 10313 ft 323 kts 103°
2026-04-20 10:27 47.36626 40.22055 10434 ft 341 kts 103°
2026-04-20 10:27 47.36091 40.25579 10554 ft 359 kts 103°
2026-04-20 10:27 47.35544 40.29162 11015 ft 364 kts 103°
2026-04-20 10:28 47.34983 40.32830 11502 ft 369 kts 103°
2026-04-20 10:28 47.34419 40.36512 12021 ft 372 kts 103°
2026-04-20 10:28 47.33846 40.40241 12494 ft 376 kts 103°
2026-04-20 10:28 47.33265 40.44014 12994 ft 379 kts 103°
2026-04-20 10:29 47.32680 40.47807 13466 ft 383 kts 103°
2026-04-20 10:29 47.32085 40.51649 13938 ft 387 kts 103°
2026-04-20 10:29 47.31491 40.55481 14460 ft 388 kts 103°
2026-04-20 10:29 47.30883 40.59386 14922 ft 392 kts 103°
2026-04-20 10:30 47.30271 40.63312 15416 ft 394 kts 103°
2026-04-20 10:30 47.29659 40.67234 15889 ft 397 kts 104°
2026-04-20 10:30 47.29036 40.71208 16363 ft 399 kts 104°
2026-04-20 10:30 47.28413 40.75175 16771 ft 403 kts 104°
2026-04-20 10:31 47.27781 40.79192 17221 ft 405 kts 104°
2026-04-20 10:31 47.27142 40.83243 17711 ft 407 kts 104°
2026-04-20 10:31 47.26498 40.87311 18204 ft 410 kts 104°
2026-04-20 10:31 47.25848 40.91416 18648 ft 413 kts 103°
2026-04-20 10:32 47.25200 40.95490 19145 ft 415 kts 104°
2026-04-20 10:32 47.24539 40.99637 19595 ft 418 kts 104°
2026-04-20 10:32 47.23871 41.03822 20070 ft 420 kts 104°
2026-04-20 10:32 47.23210 41.07950 20540 ft 422 kts 104°
2026-04-20 10:33 47.22534 41.12155 20990 ft 424 kts 103°
2026-04-20 10:33 47.21834 41.16378 21407 ft 426 kts 107°
2026-04-20 10:33 47.20718 41.20425 21798 ft 427 kts 117°
2026-04-20 10:33 47.19403 41.24342 22217 ft 429 kts 117°
2026-04-20 10:34 47.18093 41.28249 22576 ft 432 kts 117°
2026-04-20 10:34 47.16751 41.32212 23043 ft 433 kts 117°
2026-04-20 10:34 47.15418 41.36129 23361 ft 437 kts 117°
2026-04-20 10:35 47.12679 41.44139 24099 ft 441 kts 118°
2026-04-20 10:35 47.11297 41.48168 24482 ft 443 kts 118°
2026-04-20 10:35 47.09911 41.52202 24816 ft 446 kts 118°
2026-04-20 10:35 47.08528 41.56216 25255 ft 446 kts 118°
2026-04-20 10:36 47.07110 41.60328 25591 ft 449 kts 118°
2026-04-20 10:36 47.05709 41.64382 25984 ft 451 kts 118°
2026-04-20 10:36 47.04292 41.68480 26342 ft 452 kts 120°
2026-04-20 10:36 47.02868 41.72590 26678 ft 454 kts 120°
2026-04-20 10:37 47.01471 41.76613 26983 ft 456 kts 120°
2026-04-20 10:37 47.00030 41.80757 27309 ft 457 kts 120°
2026-04-20 10:37 46.98590 41.84893 27638 ft 459 kts 120°
2026-04-20 10:37 46.97153 41.89011 27911 ft 461 kts 120°
2026-04-20 10:38 46.95687 41.93209 28226 ft 462 kts 121°
2026-04-20 10:38 46.94217 41.97412 28568 ft 463 kts 121°
2026-04-20 10:38 46.92760 42.01569 28809 ft 465 kts 121°
2026-04-20 10:38 46.91286 42.05768 29126 ft 466 kts 121°
2026-04-20 10:39 46.89799 42.10000 29376 ft 468 kts 121°
2026-04-20 10:39 46.88312 42.14223 29633 ft 470 kts 121°
2026-04-20 10:39 46.86826 42.18436 29871 ft 472 kts 122°
2026-04-20 10:39 46.85316 42.22712 30174 ft 473 kts 122°
2026-04-20 10:40 46.83799 42.26998 30413 ft 475 kts 122°
2026-04-20 10:40 46.82282 42.31277 30642 ft 477 kts 122°
2026-04-20 10:40 46.80774 42.35524 30893 ft 478 kts 122°
2026-04-20 10:40 46.79240 42.39838 31067 ft 481 kts 122°
2026-04-20 10:41 46.77698 42.44171 31334 ft 481 kts 122°
2026-04-20 10:41 46.76170 42.48453 31495 ft 483 kts 122°
2026-04-20 10:41 46.74609 42.52823 31766 ft 483 kts 122°
2026-04-20 10:41 46.73050 42.57178 31902 ft 486 kts 122°
2026-04-20 10:42 46.71501 42.61501 32113 ft 486 kts 122°
2026-04-20 10:42 46.69928 42.65884 32411 ft 485 kts 122°
2026-04-20 10:42 46.68384 42.70180 32654 ft 484 kts 122°
2026-04-20 10:42 46.66817 42.74531 32882 ft 482 kts 122°
2026-04-20 10:43 46.65273 42.78813 32917 ft 480 kts 122°